ASA326 KSEA-KTPA

Flight info

Callsign ASA326
Flight time 4h 51m
Altitude 33000
Route MONTN2 SEA NORMY MODDA STEVS Q150 LEZLE SLATE/N0454F350 KD69W FRACA KM33I/N0452F370 MGM ACORI MAATY5
Aircraft B739/M-SDE2E3FGHIRWXY/LB1

Departure

Time 2026-05-03 21:15
Airport Seattle–Tacoma International Airport (KSEA)

Arrival

Time 2026-05-04 02:06
Airport Tampa International Airport (KTPA)
Time Latitude Longitude Altitude Speed Heading
2026-05-03 20:23 47.44812 -122.30337 431 ft 0 kts 40°
2026-05-03 21:06 47.44798 -122.30353 422 ft 4 kts 35°
2026-05-03 21:06 47.44775 -122.30372 420 ft 4 kts 13°
2026-05-03 21:06 47.44756 -122.30372 423 ft 4 kts 298°
2026-05-03 21:06 47.44754 -122.30366 425 ft 1 kts 272°
2026-05-03 21:09 47.44754 -122.30368 431 ft 3 kts 272°
2026-05-03 21:09 47.44755 -122.30454 431 ft 14 kts 267°
2026-05-03 21:09 47.44754 -122.30589 419 ft 7 kts 251°
2026-05-03 21:10 47.44702 -122.30622 429 ft 10 kts 180°
2026-05-03 21:10 47.44616 -122.30623 422 ft 15 kts 179°
2026-05-03 21:10 47.44489 -122.30623 423 ft 21 kts 181°
2026-05-03 21:10 47.44325 -122.30626 423 ft 26 kts 180°
2026-05-03 21:11 47.44126 -122.30629 422 ft 31 kts 180°
2026-05-03 21:11 47.43895 -122.30628 423 ft 35 kts 180°
2026-05-03 21:11 47.43664 -122.30631 423 ft 15 kts 181°
2026-05-03 21:11 47.43617 -122.30617 421 ft 10 kts 155°
2026-05-03 21:12 47.43538 -122.30549 425 ft 15 kts 147°
2026-05-03 21:12 47.43526 -122.30545 424 ft 3 kts 182°
2026-05-03 21:12 47.43479 -122.30550 420 ft 11 kts 182°
2026-05-03 21:12 47.43378 -122.30553 424 ft 18 kts 180°
2026-05-03 21:13 47.43227 -122.30563 425 ft 24 kts 195°
2026-05-03 21:13 47.43152 -122.30738 420 ft 18 kts 270°
2026-05-03 21:13 47.43185 -122.30803 422 ft 2 kts 358°
2026-05-03 21:13 47.43186 -122.30803 422 ft 0 kts 358°
2026-05-03 21:14 47.43264 -122.30804 417 ft 40 kts 360°
2026-05-03 21:14 47.43783 -122.30802 417 ft 106 kts
2026-05-03 21:14 47.44695 -122.30792 422 ft 157 kts 359°
2026-05-03 21:14 47.45844 -122.30780 851 ft 164 kts 359°
2026-05-03 21:15 47.46982 -122.30791 1499 ft 168 kts 359°
2026-05-03 21:15 47.48186 -122.30805 2107 ft 173 kts 360°
2026-05-03 21:15 47.49433 -122.30861 2510 ft 189 kts 359°
2026-05-03 21:15 47.50847 -122.30908 2654 ft 214 kts
2026-05-03 21:16 47.52361 -122.30666 2986 ft 225 kts 359°
2026-05-03 21:16 47.53976 -122.30815 3344 ft 238 kts 356°
2026-05-03 21:16 47.55706 -122.31002 3547 ft 259 kts 356°
2026-05-03 21:16 47.57530 -122.31195 4142 ft 265 kts 357°
2026-05-03 21:17 47.59346 -122.30854 4895 ft 266 kts 22°
2026-05-03 21:17 47.60414 -122.29951 5325 ft 270 kts 40°
2026-05-03 21:17 47.61763 -122.26831 6271 ft 276 kts 76°
2026-05-03 21:17 47.62005 -122.24013 6905 ft 280 kts 91°
2026-05-03 21:18 47.61602 -122.21162 7527 ft 285 kts 109°
2026-05-03 21:18 47.60869 -122.18412 8201 ft 289 kts 115°
2026-05-03 21:18 47.59905 -122.15763 8836 ft 293 kts 120°
2026-05-03 21:18 47.58872 -122.13187 9477 ft 297 kts 121°
2026-05-03 21:19 47.57804 -122.10539 10119 ft 300 kts 120°
2026-05-03 21:19 47.56732 -122.07825 10454 ft 315 kts 120°
2026-05-03 21:19 47.55605 -122.04934 10651 ft 333 kts 119°
2026-05-03 21:19 47.54419 -122.01865 10769 ft 354 kts 119°
2026-05-03 21:20 47.53176 -121.98633 11006 ft 368 kts 119°
2026-05-03 21:20 47.51898 -121.95305 11447 ft 375 kts 119°
2026-05-03 21:20 47.50606 -121.91931 12031 ft 377 kts 118°
2026-05-03 21:20 47.49310 -121.88541 12673 ft 378 kts 118°
2026-05-03 21:21 47.48010 -121.85139 13254 ft 381 kts 118°
2026-05-03 21:21 47.46702 -121.81725 13820 ft 384 kts 118°
2026-05-03 21:21 47.45372 -121.78263 14304 ft 388 kts 118°
2026-05-03 21:21 47.44112 -121.74794 14786 ft 390 kts 112°
2026-05-03 21:22 47.43238 -121.70997 15275 ft 391 kts 102°
2026-05-03 21:22 47.42815 -121.67032 15756 ft 392 kts 91°
2026-05-03 21:22 47.42758 -121.62988 16258 ft 394 kts 89°
2026-05-03 21:22 47.42722 -121.58931 16740 ft 397 kts 90°
2026-05-03 21:23 47.42662 -121.54830 17153 ft 401 kts 90°
2026-05-03 21:23 47.42453 -121.50712 17608 ft 405 kts 98°
2026-05-03 21:23 47.41820 -121.46651 18090 ft 408 kts 103°
2026-05-03 21:23 47.41080 -121.42591 18505 ft 411 kts 104°
2026-05-03 21:24 47.40319 -121.38502 18918 ft 413 kts 104°
2026-05-03 21:24 47.39560 -121.34401 19325 ft 415 kts 103°
2026-05-03 21:24 47.38804 -121.30275 19728 ft 418 kts 103°
2026-05-03 21:24 47.38048 -121.26113 20119 ft 421 kts 103°
2026-05-03 21:25 47.37293 -121.21925 20519 ft 423 kts 103°
2026-05-03 21:25 47.36536 -121.17716 20905 ft 426 kts 103°
2026-05-03 21:25 47.35784 -121.13541 21281 ft 428 kts 103°
2026-05-03 21:25 47.35015 -121.09282 21659 ft 431 kts 103°
2026-05-03 21:26 47.34240 -121.05001 22062 ft 433 kts 103°
2026-05-03 21:26 47.33459 -121.00693 22421 ft 436 kts 103°
2026-05-03 21:26 47.32673 -120.96368 22795 ft 438 kts 103°
2026-05-03 21:26 47.31881 -120.92014 23181 ft 441 kts 103°
2026-05-03 21:27 47.31083 -120.87644 23552 ft 443 kts 103°
2026-05-03 21:27 47.30279 -120.83251 23859 ft 445 kts 104°
2026-05-03 21:27 47.29470 -120.78846 24168 ft 447 kts 104°
2026-05-03 21:27 47.28655 -120.74418 24464 ft 449 kts 104°
2026-05-03 21:28 47.27834 -120.69967 24771 ft 451 kts 104°
2026-05-03 21:28 47.27010 -120.65512 25125 ft 452 kts 104°
2026-05-03 21:28 47.26184 -120.61044 25452 ft 453 kts 104°
2026-05-03 21:28 47.25350 -120.56558 25746 ft 455 kts 104°
2026-05-03 21:29 47.24520 -120.52052 26034 ft 457 kts 103°
2026-05-03 21:29 47.23747 -120.47502 26327 ft 459 kts 102°
2026-05-03 21:29 47.23017 -120.42977 26605 ft 460 kts 102°
2026-05-03 21:29 47.22286 -120.38386 26885 ft 462 kts 102°
2026-05-03 21:30 47.21546 -120.33779 27145 ft 464 kts 102°
2026-05-03 21:30 47.20794 -120.29156 27419 ft 466 kts 102°
2026-05-03 21:30 47.20031 -120.24519 27697 ft 467 kts 102°
2026-05-03 21:30 47.19261 -120.19868 27981 ft 469 kts 102°
2026-05-03 21:31 47.18488 -120.15217 28335 ft 469 kts 102°
2026-05-03 21:31 47.17713 -120.10567 28760 ft 467 kts 102°
2026-05-03 21:31 47.16924 -120.05946 29160 ft 466 kts 104°
2026-05-03 21:31 47.15817 -120.01467 29512 ft 467 kts 113°
2026-05-03 21:32 47.14396 -119.97177 29893 ft 467 kts 115°
2026-05-03 21:32 47.12947 -119.92975 30212 ft 466 kts 115°
2026-05-03 21:32 47.11472 -119.88741 30510 ft 466 kts 115°
2026-05-03 21:32 47.10001 -119.84506 30806 ft 465 kts 115°
2026-05-03 21:33 47.08545 -119.80282 31104 ft 464 kts 115°
2026-05-03 21:33 47.07100 -119.76061 31401 ft 463 kts 114°
2026-05-03 21:33 47.05663 -119.71847 31692 ft 462 kts 114°
2026-05-03 21:33 47.04227 -119.67629 31960 ft 461 kts 114°
2026-05-03 21:34 47.02792 -119.63411 32189 ft 462 kts 114°
2026-05-03 21:34 47.01356 -119.59196 32386 ft 463 kts 114°
2026-05-03 21:34 46.99915 -119.54973 32618 ft 463 kts 114°
2026-05-03 21:34 46.98475 -119.50762 32887 ft 462 kts 114°
2026-05-03 21:35 46.96742 -119.46809 32937 ft 466 kts 136°
2026-05-03 21:35 46.94270 -119.43753 33139 ft 464 kts 146°
2026-05-03 21:35 46.91657 -119.41052 33617 ft 454 kts 148°
2026-05-03 21:35 46.89032 -119.38436 33311 ft 462 kts 141°
2026-05-03 21:36 46.86753 -119.35129 33141 ft 462 kts 127°
2026-05-03 21:36 46.85089 -119.31135 33069 ft 461 kts 116°
2026-05-03 21:36 46.82614 -119.22555 32962 ft 461 kts 112°
2026-05-03 21:37 46.80304 -119.13858 32942 ft 459 kts 111°
2026-05-03 21:37 46.78163 -119.05096 32906 ft 457 kts 102°
2026-05-03 21:38 46.77225 -118.95964 32975 ft 456 kts 99°
2026-05-03 21:38 46.75731 -118.86937 32950 ft 461 kts 110°
2026-05-03 21:39 46.73224 -118.78304 32926 ft 464 kts 116°
2026-05-03 21:39 46.70278 -118.69918 32931 ft 465 kts 118°
2026-05-03 21:40 46.67261 -118.61592 32930 ft 464 kts 118°
2026-05-03 21:40 46.64272 -118.53269 32935 ft 463 kts 118°
2026-05-03 21:41 46.61307 -118.44956 32936 ft 462 kts 118°
2026-05-03 21:41 46.58368 -118.36717 32939 ft 461 kts 118°
2026-05-03 21:42 46.55409 -118.28446 32935 ft 461 kts 118°
2026-05-03 21:42 46.52444 -118.20185 32937 ft 461 kts 118°
2026-05-03 21:43 46.49477 -118.11947 32940 ft 461 kts 118°
2026-05-03 21:43 46.46504 -118.03715 32949 ft 461 kts 118°
2026-05-03 21:44 46.43523 -117.95485 32957 ft 461 kts 118°
2026-05-03 21:44 46.40539 -117.87271 32966 ft 461 kts 118°
2026-05-03 21:45 46.37543 -117.79047 32958 ft 462 kts 118°
2026-05-03 21:45 46.34538 -117.70821 32959 ft 461 kts 118°
2026-05-03 21:46 46.32043 -117.64006 32961 ft 462 kts 118°
2026-05-03 21:46 46.28539 -117.54461 32960 ft 462 kts 118°
2026-05-03 21:47 46.25524 -117.46264 32955 ft 462 kts 118°
2026-05-03 21:47 46.23016 -117.39458 32942 ft 462 kts 118°
2026-05-03 21:48 46.19996 -117.31265 32939 ft 461 kts 118°
2026-05-03 21:48 46.16990 -117.23083 32949 ft 461 kts 119°
2026-05-03 21:49 46.13975 -117.14915 32924 ft 461 kts 115°
2026-05-03 21:49 46.11466 -117.06433 32942 ft 460 kts 113°
2026-05-03 21:50 46.09074 -116.97892 32961 ft 459 kts 112°
2026-05-03 21:50 46.06694 -116.89353 32942 ft 459 kts 112°
2026-05-03 21:51 46.04314 -116.80885 32950 ft 459 kts 113°
2026-05-03 21:51 46.01904 -116.72365 32942 ft 460 kts 113°
2026-05-03 21:52 45.99482 -116.63846 32943 ft 459 kts 113°
2026-05-03 21:52 45.97055 -116.55338 32950 ft 460 kts 113°
2026-05-03 21:53 45.94617 -116.46817 32965 ft 461 kts 113°
2026-05-03 21:53 45.92173 -116.38306 32980 ft 461 kts 113°
2026-05-03 21:54 45.89720 -116.29794 32990 ft 460 kts 113°
2026-05-03 21:54 45.87266 -116.21311 33009 ft 460 kts 113°
2026-05-03 21:55 45.84804 -116.12826 33007 ft 460 kts 114°
2026-05-03 21:55 45.82337 -116.04356 32998 ft 460 kts 114°
2026-05-03 21:56 45.79883 -115.95958 32981 ft 460 kts 114°
2026-05-03 21:56 45.77406 -115.87509 32963 ft 460 kts 114°
2026-05-03 21:57 45.74922 -115.79067 32944 ft 460 kts 114°
2026-05-03 21:57 45.72431 -115.70627 32921 ft 460 kts 114°
2026-05-03 21:58 45.69934 -115.62194 32911 ft 461 kts 114°
2026-05-03 21:58 45.67426 -115.53755 32905 ft 461 kts 114°
2026-05-03 21:59 45.64912 -115.45320 32900 ft 461 kts 114°
2026-05-03 21:59 45.62392 -115.36894 32890 ft 461 kts 114°
2026-05-03 22:00 45.59861 -115.28463 32891 ft 462 kts 114°
2026-05-03 22:00 45.57321 -115.20032 32879 ft 461 kts 114°
2026-05-03 22:01 45.54803 -115.11698 32887 ft 460 kts 114°
2026-05-03 22:01 45.52267 -115.03338 32886 ft 459 kts 114°
2026-05-03 22:02 45.49721 -114.94971 32895 ft 460 kts 114°
2026-05-03 22:02 45.47167 -114.86599 32904 ft 462 kts 114°
2026-05-03 22:03 45.44592 -114.78182 32904 ft 463 kts 114°
2026-05-03 22:03 45.42021 -114.69812 32907 ft 464 kts 114°
2026-05-03 22:04 45.39428 -114.61417 32899 ft 462 kts 114°
2026-05-03 22:04 45.36856 -114.53102 32895 ft 458 kts 114°
2026-05-03 22:05 45.34291 -114.44835 32899 ft 455 kts 115°
2026-05-03 22:05 45.31728 -114.36602 32921 ft 456 kts 115°
2026-05-03 22:06 45.29146 -114.28331 32900 ft 459 kts 115°
2026-05-03 22:06 45.26549 -114.20031 32913 ft 462 kts 115°
2026-05-03 22:07 45.23938 -114.11716 32902 ft 465 kts 115°
2026-05-03 22:07 45.21293 -114.03319 32904 ft 467 kts 115°
2026-05-03 22:08 45.18635 -113.94912 32884 ft 468 kts 115°
2026-05-03 22:08 45.15966 -113.86505 32890 ft 467 kts 115°
2026-05-03 22:09 45.13297 -113.78124 32894 ft 466 kts 115°
2026-05-03 22:10 45.09297 -113.65616 32892 ft 464 kts 115°
2026-05-03 22:10 45.06629 -113.57304 32904 ft 464 kts 116°
2026-05-03 22:11 45.03971 -113.49052 32896 ft 464 kts 116°
2026-05-03 22:11 45.01294 -113.40764 32905 ft 463 kts 116°
2026-05-03 22:12 44.98606 -113.32467 32902 ft 464 kts 116°
2026-05-03 22:12 44.95906 -113.24158 32904 ft 465 kts 116°
2026-05-03 22:13 44.93198 -113.15850 32902 ft 466 kts 116°
2026-05-03 22:13 44.90476 -113.07529 32911 ft 467 kts 116°
2026-05-03 22:14 44.87763 -112.99260 32904 ft 468 kts 116°
2026-05-03 22:14 44.85023 -112.90933 32915 ft 469 kts 116°
2026-05-03 22:15 44.82265 -112.82580 32914 ft 470 kts 116°
2026-05-03 22:15 44.79505 -112.74243 32920 ft 470 kts 117°
2026-05-03 22:16 44.76734 -112.65903 32926 ft 470 kts 117°
2026-05-03 22:16 44.73958 -112.57577 32931 ft 469 kts 117°
2026-05-03 22:17 44.71182 -112.49276 32934 ft 469 kts 117°
2026-05-03 22:17 44.68401 -112.40987 32942 ft 469 kts 117°
2026-05-03 22:18 44.65614 -112.32702 32936 ft 469 kts 117°
2026-05-03 22:18 44.62821 -112.24427 32951 ft 469 kts 117°
2026-05-03 22:19 44.60022 -112.16157 32949 ft 470 kts 118°
2026-05-03 22:19 44.57209 -112.07872 32959 ft 470 kts 118°
2026-05-03 22:20 44.54402 -111.99630 32947 ft 472 kts 118°
2026-05-03 22:20 44.51572 -111.91345 32953 ft 472 kts 118°
2026-05-03 22:21 44.48729 -111.83048 32954 ft 472 kts 118°
2026-05-03 22:21 44.45881 -111.74762 32958 ft 473 kts 118°
2026-05-03 22:22 44.43021 -111.66465 32957 ft 473 kts 118°
2026-05-03 22:22 44.40152 -111.58168 32969 ft 474 kts 118°
2026-05-03 22:23 44.37273 -111.49865 32959 ft 475 kts 118°
2026-05-03 22:23 44.34387 -111.41567 32967 ft 475 kts 118°
2026-05-03 22:24 44.31490 -111.33261 32962 ft 476 kts 118°
2026-05-03 22:24 44.28603 -111.25009 32979 ft 476 kts 118°
2026-05-03 22:25 44.25677 -111.16669 32983 ft 476 kts 119°
2026-05-03 22:25 44.22779 -111.08432 32999 ft 476 kts 119°
2026-05-03 22:26 44.19859 -111.00154 33005 ft 476 kts 119°
2026-05-03 22:26 44.16933 -110.91879 33009 ft 476 kts 119°
2026-05-03 22:27 44.13999 -110.83597 33031 ft 477 kts 119°
2026-05-03 22:27 44.11056 -110.75302 33021 ft 478 kts 119°
2026-05-03 22:28 44.08114 -110.67008 33031 ft 478 kts 119°
2026-05-03 22:28 44.05173 -110.58694 33029 ft 480 kts 119°
2026-05-03 22:29 44.02185 -110.50396 33011 ft 480 kts 120°
2026-05-03 22:29 43.99238 -110.42123 33006 ft 481 kts 119°
2026-05-03 22:30 43.96317 -110.33765 33020 ft 481 kts 119°
2026-05-03 22:30 43.93415 -110.25410 33016 ft 481 kts 119°
2026-05-03 22:31 43.90501 -110.17035 33013 ft 482 kts 119°
2026-05-03 22:31 43.87577 -110.08662 33018 ft 483 kts 119°
2026-05-03 22:32 43.84639 -110.00282 33032 ft 484 kts 119°
2026-05-03 22:32 43.81688 -109.91889 33020 ft 484 kts 119°
2026-05-03 22:33 43.78730 -109.83505 33020 ft 485 kts 119°
2026-05-03 22:33 43.75782 -109.75174 33049 ft 485 kts 120°
2026-05-03 22:34 43.72808 -109.66797 33018 ft 486 kts 120°
2026-05-03 22:34 43.70309 -109.59775 33043 ft 485 kts 120°
2026-05-03 22:35 43.67342 -109.51462 33034 ft 486 kts 120°
2026-05-03 22:35 43.64344 -109.43090 33009 ft 486 kts 120°
2026-05-03 22:36 43.61338 -109.34716 33000 ft 487 kts 120°
2026-05-03 22:36 43.58320 -109.26337 32970 ft 488 kts 120°
2026-05-03 22:37 43.55295 -109.17964 32920 ft 488 kts 120°
2026-05-03 22:37 43.52266 -109.09602 32910 ft 488 kts 120°
2026-05-03 22:38 43.49241 -109.01279 32894 ft 488 kts 120°
2026-05-03 22:38 43.46189 -108.92906 32882 ft 489 kts 120°
2026-05-03 22:39 43.43130 -108.84541 32860 ft 489 kts 120°
2026-05-03 22:39 43.40056 -108.76160 32854 ft 490 kts 120°
2026-05-03 22:40 43.36982 -108.67801 32850 ft 490 kts 120°
2026-05-03 22:40 43.33899 -108.59444 32874 ft 490 kts 120°
2026-05-03 22:41 43.30814 -108.51107 32886 ft 490 kts 120°
2026-05-03 22:41 43.27738 -108.42820 32907 ft 490 kts 120°
2026-05-03 22:42 43.24637 -108.34489 32910 ft 490 kts 120°
2026-05-03 22:42 43.21527 -108.26159 32907 ft 490 kts 120°
2026-05-03 22:43 43.18413 -108.17843 32889 ft 490 kts 120°
2026-05-03 22:43 43.15293 -108.09534 32877 ft 490 kts 120°
2026-05-03 22:44 43.12166 -108.01234 32860 ft 490 kts 121°
2026-05-03 22:44 43.09033 -107.92940 32859 ft 490 kts 121°
2026-05-03 22:45 43.05912 -107.84703 32859 ft 490 kts 121°
2026-05-03 22:45 43.02770 -107.76434 32865 ft 490 kts 121°
2026-05-03 22:46 42.99617 -107.68159 32867 ft 490 kts 121°
2026-05-03 22:46 42.96460 -107.59900 32872 ft 490 kts 121°
2026-05-03 22:47 42.93294 -107.51640 32873 ft 491 kts 121°
2026-05-03 22:47 42.90123 -107.43392 32872 ft 491 kts 121°
2026-05-03 22:48 42.86946 -107.35151 32872 ft 490 kts 121°
2026-05-03 22:48 42.83783 -107.26972 32871 ft 490 kts 121°
2026-05-03 22:49 42.80600 -107.18763 32871 ft 490 kts 121°
2026-05-03 22:49 42.77408 -107.10555 32869 ft 490 kts 121°
2026-05-03 22:50 42.74214 -107.02363 32867 ft 490 kts 121°
2026-05-03 22:50 42.71013 -106.94178 32861 ft 490 kts 121°
2026-05-03 22:51 42.67804 -106.85996 32859 ft 490 kts 121°
2026-05-03 22:51 42.64609 -106.77872 32872 ft 490 kts 121°
2026-05-03 22:52 42.61391 -106.69715 32862 ft 490 kts 121°
2026-05-03 22:52 42.58167 -106.61563 32878 ft 490 kts 121°
2026-05-03 22:53 42.54937 -106.53421 32867 ft 490 kts 121°
2026-05-03 22:53 42.51701 -106.45287 32878 ft 490 kts 121°
2026-05-03 22:54 42.48463 -106.37169 32891 ft 490 kts 121°
2026-05-03 22:54 42.45237 -106.29104 32891 ft 490 kts 121°
2026-05-03 22:55 42.41993 -106.21017 32898 ft 489 kts 121°
2026-05-03 22:55 42.38738 -106.12923 32907 ft 489 kts 121°
2026-05-03 22:56 42.35482 -106.04851 32906 ft 489 kts 121°
2026-05-03 22:56 42.32219 -105.96785 32907 ft 489 kts 121°
2026-05-03 22:57 42.28950 -105.88725 32907 ft 488 kts 121°
2026-05-03 22:57 42.25677 -105.80677 32912 ft 488 kts 121°
2026-05-03 22:58 42.22418 -105.72687 32907 ft 489 kts 121°
2026-05-03 22:58 42.19136 -105.64658 32902 ft 489 kts 121°
2026-05-03 22:59 42.15847 -105.56636 32899 ft 489 kts 121°
2026-05-03 22:59 42.12544 -105.48601 32898 ft 489 kts 121°
2026-05-03 23:00 42.09262 -105.40640 32894 ft 488 kts 121°
2026-05-03 23:00 42.05957 -105.32645 32906 ft 487 kts 121°
2026-05-03 23:01 42.02660 -105.24690 32914 ft 486 kts 121°
2026-05-03 23:01 41.99355 -105.16739 32924 ft 486 kts 121°
2026-05-03 23:02 41.96069 -105.08853 32923 ft 485 kts 121°
2026-05-03 23:02 41.92774 -105.00964 32935 ft 485 kts 121°
2026-05-03 23:03 41.89461 -104.93054 32921 ft 485 kts 121°
2026-05-03 23:03 41.86142 -104.85150 32925 ft 484 kts 121°
2026-05-03 23:04 41.82848 -104.77329 32906 ft 484 kts 121°
2026-05-03 23:04 41.79528 -104.69468 32908 ft 484 kts 121°
2026-05-03 23:05 41.76209 -104.61613 32909 ft 485 kts 121°
2026-05-03 23:05 41.72879 -104.53757 32902 ft 485 kts 121°
2026-05-03 23:06 41.69541 -104.45900 32894 ft 485 kts 121°
2026-05-03 23:06 41.66195 -104.38046 32891 ft 485 kts 121°
2026-05-03 23:07 41.62855 -104.30218 32883 ft 485 kts 121°
2026-05-03 23:07 41.59512 -104.22394 32874 ft 484 kts 121°
2026-05-03 23:08 41.56199 -104.14641 32885 ft 484 kts 121°
2026-05-03 23:08 41.52877 -104.06834 32889 ft 483 kts 121°
2026-05-03 23:09 41.49524 -103.99067 32883 ft 483 kts 122°
2026-05-03 23:09 41.46197 -103.91257 32886 ft 483 kts 121°
2026-05-03 23:10 41.42947 -103.83432 32901 ft 482 kts 121°
2026-05-03 23:10 41.39716 -103.75586 32910 ft 483 kts 120°
2026-05-03 23:11 41.36481 -103.67740 32915 ft 483 kts 121°
2026-05-03 23:11 41.33263 -103.59969 32924 ft 483 kts 121°
2026-05-03 23:12 41.29993 -103.52097 32914 ft 483 kts 121°
2026-05-03 23:12 41.26757 -103.44327 32910 ft 483 kts 121°
2026-05-03 23:13 41.23497 -103.36522 32893 ft 483 kts 121°
2026-05-03 23:13 41.20230 -103.28722 32879 ft 483 kts 121°
2026-05-03 23:14 41.16960 -103.20934 32894 ft 483 kts 121°
2026-05-03 23:14 41.13680 -103.13140 32913 ft 483 kts 121°
2026-05-03 23:15 41.10399 -103.05366 32918 ft 483 kts 121°
2026-05-03 23:15 41.07110 -102.97594 32915 ft 484 kts 121°
2026-05-03 23:16 41.03811 -102.89817 32917 ft 484 kts 121°
2026-05-03 23:16 41.00507 -102.82048 32904 ft 484 kts 121°
2026-05-03 23:17 40.97196 -102.74285 32889 ft 484 kts 121°
2026-05-03 23:17 40.93897 -102.66568 32879 ft 484 kts 122°
2026-05-03 23:18 40.90570 -102.58805 32866 ft 485 kts 122°
2026-05-03 23:18 40.87242 -102.51062 32874 ft 485 kts 122°
2026-05-03 23:19 40.83906 -102.43317 32872 ft 485 kts 122°
2026-05-03 23:19 40.80565 -102.35583 32877 ft 485 kts 122°
2026-05-03 23:20 40.77215 -102.27847 32879 ft 485 kts 122°
2026-05-03 23:20 40.73867 -102.20134 32883 ft 485 kts 122°
2026-05-03 23:21 40.70525 -102.12455 32883 ft 485 kts 122°
2026-05-03 23:21 40.67160 -102.04743 32892 ft 485 kts 122°
2026-05-03 23:22 40.62102 -101.93188 32904 ft 485 kts 122°
2026-05-03 23:22 40.59294 -101.86791 32909 ft 486 kts 122°
2026-05-03 23:23 40.55903 -101.79084 32909 ft 486 kts 122°
2026-05-03 23:23 40.51963 -101.70154 32916 ft 486 kts 122°
2026-05-03 23:24 40.49115 -101.63715 32916 ft 486 kts 123°
2026-05-03 23:24 40.45734 -101.56091 32914 ft 486 kts 123°
2026-05-03 23:25 40.42322 -101.48414 32911 ft 486 kts 123°
2026-05-03 23:25 40.38909 -101.40755 32902 ft 486 kts 123°
2026-05-03 23:26 40.35487 -101.33093 32894 ft 486 kts 123°
2026-05-03 23:26 40.32007 -101.25463 32867 ft 490 kts 126°
2026-05-03 23:27 40.28526 -101.17720 32887 ft 495 kts 125°
2026-05-03 23:27 40.25044 -101.09898 32879 ft 500 kts 125°
2026-05-03 23:28 40.21512 -101.02018 32876 ft 504 kts 125°
2026-05-03 23:28 40.17960 -100.94148 32867 ft 506 kts 125°
2026-05-03 23:29 40.14361 -100.86208 32872 ft 508 kts 125°
2026-05-03 23:29 40.10755 -100.78276 32874 ft 507 kts 125°
2026-05-03 23:30 40.07147 -100.70361 32873 ft 507 kts 125°
2026-05-03 23:30 40.03545 -100.62481 32871 ft 505 kts 126°
2026-05-03 23:31 39.99942 -100.54618 32865 ft 504 kts 126°
2026-05-03 23:31 39.96344 -100.46789 32866 ft 503 kts 126°
2026-05-03 23:32 39.92750 -100.38985 32863 ft 502 kts 126°
2026-05-03 23:32 39.89156 -100.31202 32861 ft 501 kts 126°
2026-05-03 23:33 39.85562 -100.23437 32854 ft 501 kts 126°
2026-05-03 23:33 39.81955 -100.15662 32852 ft 501 kts 126°
2026-05-03 23:34 39.78370 -100.07955 32855 ft 502 kts 126°
2026-05-03 23:34 39.74750 -100.00190 32863 ft 502 kts 126°
2026-05-03 23:35 39.71120 -99.92423 32856 ft 504 kts 126°
2026-05-03 23:35 39.67474 -99.84638 32858 ft 505 kts 126°
2026-05-03 23:36 39.63814 -99.76845 32853 ft 506 kts 126°
2026-05-03 23:36 39.60146 -99.69052 32848 ft 507 kts 126°
2026-05-03 23:37 39.56463 -99.61249 32846 ft 507 kts 126°
2026-05-03 23:37 39.52774 -99.53452 32847 ft 508 kts 126°
2026-05-03 23:38 39.49079 -99.45662 32839 ft 508 kts 126°
2026-05-03 23:38 39.45374 -99.37871 32831 ft 508 kts 126°
2026-05-03 23:39 39.41663 -99.30086 32829 ft 508 kts 127°
2026-05-03 23:39 39.37977 -99.22375 32837 ft 507 kts 127°
2026-05-03 23:40 39.34259 -99.14614 32820 ft 508 kts 127°
2026-05-03 23:40 39.30537 -99.06864 32828 ft 508 kts 127°
2026-05-03 23:41 39.26803 -98.99109 32831 ft 508 kts 127°
2026-05-03 23:41 39.23062 -98.91358 32822 ft 509 kts 127°
2026-05-03 23:42 39.19336 -98.83656 32815 ft 510 kts 127°
2026-05-03 23:42 39.15573 -98.75894 32817 ft 510 kts 127°
2026-05-03 23:43 39.11806 -98.68140 32812 ft 511 kts 127°
2026-05-03 23:43 39.08016 -98.60360 32812 ft 511 kts 127°
2026-05-03 23:44 39.04229 -98.52606 32796 ft 512 kts 127°
2026-05-03 23:44 39.00439 -98.44864 32797 ft 511 kts 127°
2026-05-03 23:45 38.96672 -98.37188 32806 ft 510 kts 127°
2026-05-03 23:45 38.92879 -98.29480 32803 ft 510 kts 127°
2026-05-03 23:46 38.89080 -98.21775 32807 ft 510 kts 127°
2026-05-03 23:46 38.85279 -98.14087 32807 ft 509 kts 127°
2026-05-03 23:47 38.81481 -98.06422 32818 ft 509 kts 127°
2026-05-03 23:47 38.77696 -97.98802 32819 ft 509 kts 127°
2026-05-03 23:48 38.73886 -97.91147 32829 ft 509 kts 127°
2026-05-03 23:48 38.70070 -97.83498 32829 ft 509 kts 127°
2026-05-03 23:49 38.66250 -97.75857 32836 ft 509 kts 127°
2026-05-03 23:49 38.62422 -97.68219 32836 ft 509 kts 127°
2026-05-03 23:50 38.59243 -97.61890 32832 ft 509 kts 127°
2026-05-03 23:50 38.54761 -97.52987 32828 ft 509 kts 127°
2026-05-03 23:51 38.50915 -97.45363 32831 ft 509 kts 127°
2026-05-03 23:51 38.47095 -97.37810 32830 ft 509 kts 127°
2026-05-03 23:52 38.43250 -97.30221 32821 ft 509 kts 127°
2026-05-03 23:52 38.39402 -97.22639 32818 ft 509 kts 127°
2026-05-03 23:53 38.35545 -97.15056 32824 ft 509 kts 128°
2026-05-03 23:53 38.31692 -97.07491 32829 ft 509 kts 127°
2026-05-03 23:54 38.27840 -96.99935 32832 ft 509 kts 127°
2026-05-03 23:54 38.23988 -96.92375 32832 ft 509 kts 127°
2026-05-03 23:55 38.20145 -96.84808 32842 ft 509 kts 128°
2026-05-03 23:55 38.16238 -96.77285 32846 ft 509 kts 129°
2026-05-03 23:56 38.12266 -96.69835 32827 ft 509 kts 129°
2026-05-03 23:56 38.08345 -96.62422 32839 ft 509 kts 128°
2026-05-03 23:57 38.04423 -96.54936 32856 ft 509 kts 128°
2026-05-03 23:57 38.00509 -96.47448 32849 ft 509 kts 128°
2026-05-03 23:58 37.96596 -96.39978 32844 ft 509 kts 128°
2026-05-03 23:58 37.92672 -96.32511 32849 ft 509 kts 128°
2026-05-03 23:59 37.88740 -96.25049 32862 ft 509 kts 128°
2026-05-03 23:59 37.84803 -96.17593 32859 ft 509 kts 128°
2026-05-04 00:00 37.80855 -96.10135 32854 ft 510 kts 128°
2026-05-04 00:00 37.76901 -96.02680 32856 ft 510 kts 128°
2026-05-04 00:01 37.72939 -95.95227 32878 ft 511 kts 128°
2026-05-04 00:01 37.68968 -95.87774 32879 ft 512 kts 128°
2026-05-04 00:02 37.65012 -95.80364 32879 ft 512 kts 128°
2026-05-04 00:02 37.61018 -95.72900 32897 ft 513 kts 128°
2026-05-04 00:03 37.57027 -95.65459 32890 ft 513 kts 128°
2026-05-04 00:03 37.53024 -95.58012 32893 ft 513 kts 128°
2026-05-04 00:04 37.49016 -95.50576 32889 ft 512 kts 128°
2026-05-04 00:04 37.45016 -95.43169 32895 ft 512 kts 128°
2026-05-04 00:05 37.41010 -95.35767 32896 ft 511 kts 128°
2026-05-04 00:05 37.37003 -95.28381 32891 ft 511 kts 128°
2026-05-04 00:06 37.32990 -95.21000 32897 ft 511 kts 128°
2026-05-04 00:06 37.28978 -95.13637 32904 ft 510 kts 128°
2026-05-04 00:07 37.24958 -95.06275 32904 ft 510 kts 128°
2026-05-04 00:07 37.20964 -94.98977 32913 ft 510 kts 129°
2026-05-04 00:08 37.16941 -94.91642 32919 ft 510 kts 129°
2026-05-04 00:08 37.12914 -94.84315 32918 ft 511 kts 129°
2026-05-04 00:09 37.08877 -94.76984 32923 ft 511 kts 129°
2026-05-04 00:09 37.05512 -94.70888 32938 ft 511 kts 129°
2026-05-04 00:10 37.01467 -94.63574 32939 ft 511 kts 129°
2026-05-04 00:10 36.97413 -94.56258 32937 ft 511 kts 129°
2026-05-04 00:11 36.93357 -94.48956 32934 ft 511 kts 129°
2026-05-04 00:11 36.89292 -94.41652 32942 ft 511 kts 129°
2026-05-04 00:12 36.85224 -94.34360 32957 ft 511 kts 129°
2026-05-04 00:12 36.81177 -94.27120 32960 ft 511 kts 129°
2026-05-04 00:13 36.77100 -94.19843 32964 ft 511 kts 129°
2026-05-04 00:13 36.73020 -94.12576 32965 ft 511 kts 129°
2026-05-04 00:14 36.68938 -94.05320 32965 ft 511 kts 129°
2026-05-04 00:14 36.64849 -93.98069 32970 ft 511 kts 129°
2026-05-04 00:15 36.60760 -93.90832 32977 ft 511 kts 129°
2026-05-04 00:15 36.56670 -93.83609 32981 ft 510 kts 129°
2026-05-04 00:16 36.52574 -93.76391 32977 ft 510 kts 129°
2026-05-04 00:16 36.48480 -93.69191 32973 ft 510 kts 129°
2026-05-04 00:17 36.44382 -93.61999 32972 ft 510 kts 129°
2026-05-04 00:17 36.40278 -93.54811 32981 ft 510 kts 129°
2026-05-04 00:18 36.36172 -93.47637 32984 ft 510 kts 129°
2026-05-04 00:18 36.32094 -93.40523 33001 ft 509 kts 129°
2026-05-04 00:19 36.27982 -93.33367 33007 ft 509 kts 129°
2026-05-04 00:19 36.23869 -93.26223 33012 ft 509 kts 129°
2026-05-04 00:20 36.19747 -93.19078 33013 ft 510 kts 129°
2026-05-04 00:20 36.15618 -93.11936 33010 ft 510 kts 129°
2026-05-04 00:21 36.11484 -93.04800 33005 ft 510 kts 129°
2026-05-04 00:21 36.07346 -92.97670 32992 ft 510 kts 129°
2026-05-04 00:22 36.03199 -92.90540 32990 ft 510 kts 129°
2026-05-04 00:22 35.99081 -92.83475 32987 ft 510 kts 129°
2026-05-04 00:23 35.94915 -92.76339 32991 ft 509 kts 129°
2026-05-04 00:23 35.90797 -92.69301 32989 ft 508 kts 129°
2026-05-04 00:24 35.86653 -92.62232 32999 ft 508 kts 129°
2026-05-04 00:24 35.82502 -92.55164 33004 ft 508 kts 129°
2026-05-04 00:25 35.78354 -92.48112 33006 ft 508 kts 129°
2026-05-04 00:25 35.74204 -92.41071 33004 ft 508 kts 129°
2026-05-04 00:26 35.70044 -92.34022 33005 ft 508 kts 129°
2026-05-04 00:26 35.65888 -92.26988 33007 ft 508 kts 129°
2026-05-04 00:27 35.61733 -92.19962 33006 ft 508 kts 129°
2026-05-04 00:27 35.57579 -92.12934 33015 ft 508 kts 129°
2026-05-04 00:28 35.53435 -92.05894 33018 ft 508 kts 129°
2026-05-04 00:28 35.49272 -91.98874 33010 ft 509 kts 128°
2026-05-04 00:29 35.45313 -91.91744 33024 ft 508 kts 127°
2026-05-04 00:29 35.41426 -91.84496 33040 ft 508 kts 126°
2026-05-04 00:30 35.37562 -91.77241 33038 ft 508 kts 126°
2026-05-04 00:30 35.33689 -91.69997 33033 ft 508 kts 126°
2026-05-04 00:31 35.29802 -91.62761 33040 ft 508 kts 126°
2026-05-04 00:31 35.25934 -91.55585 33037 ft 508 kts 126°
2026-05-04 00:32 35.22034 -91.48363 33047 ft 508 kts 126°
2026-05-04 00:32 35.18136 -91.41159 33053 ft 508 kts 126°
2026-05-04 00:33 35.12280 -91.30363 33066 ft 508 kts 126°
2026-05-04 00:34 35.08374 -91.23181 33064 ft 507 kts 126°
2026-05-04 00:34 35.04461 -91.16000 33053 ft 507 kts 126°
2026-05-04 00:35 35.00549 -91.08836 33047 ft 507 kts 126°
2026-05-04 00:35 34.96659 -91.01726 33048 ft 507 kts 127°
2026-05-04 00:36 34.92741 -90.94580 33045 ft 507 kts 127°
2026-05-04 00:36 34.88819 -90.87441 33045 ft 507 kts 127°
2026-05-04 00:37 34.84894 -90.80309 33046 ft 507 kts 127°
2026-05-04 00:37 34.80967 -90.73189 33053 ft 507 kts 127°
2026-05-04 00:38 34.77031 -90.66068 33049 ft 507 kts 127°
2026-05-04 00:38 34.73100 -90.58969 33055 ft 506 kts 127°
2026-05-04 00:39 34.69165 -90.51877 33053 ft 506 kts 127°
2026-05-04 00:39 34.65215 -90.44773 33054 ft 506 kts 127°
2026-05-04 00:40 34.61263 -90.37680 33068 ft 506 kts 127°
2026-05-04 00:40 34.57315 -90.30606 33057 ft 506 kts 127°
2026-05-04 00:41 34.53383 -90.23577 33060 ft 506 kts 127°
2026-05-04 00:41 34.49430 -90.16524 33073 ft 506 kts 127°
2026-05-04 00:42 34.45467 -90.09466 33071 ft 506 kts 127°
2026-05-04 00:42 34.41506 -90.02427 33079 ft 506 kts 127°
2026-05-04 00:43 34.37537 -89.95386 33082 ft 506 kts 127°
2026-05-04 00:43 34.33568 -89.88358 33073 ft 506 kts 127°
2026-05-04 00:44 34.29593 -89.81336 33069 ft 506 kts 127°
2026-05-04 00:44 34.25615 -89.74320 33067 ft 506 kts 127°
2026-05-04 00:45 34.21634 -89.67314 33089 ft 505 kts 127°
2026-05-04 00:45 34.17649 -89.60313 33099 ft 505 kts 127°
2026-05-04 00:46 34.13684 -89.53362 33098 ft 505 kts 127°
2026-05-04 00:46 34.09696 -89.46383 33084 ft 505 kts 127°
2026-05-04 00:47 34.05705 -89.39411 33096 ft 505 kts 127°
2026-05-04 00:47 34.01716 -89.32460 33094 ft 504 kts 127°
2026-05-04 00:48 33.97719 -89.25506 33100 ft 504 kts 127°
2026-05-04 00:48 33.93727 -89.18573 33084 ft 504 kts 127°
2026-05-04 00:49 33.89730 -89.11647 33090 ft 503 kts 127°
2026-05-04 00:49 33.85734 -89.04733 33108 ft 503 kts 127°
2026-05-04 00:50 33.81733 -88.97826 33096 ft 503 kts 127°
2026-05-04 00:50 33.77729 -88.90926 33103 ft 503 kts 127°
2026-05-04 00:51 33.73727 -88.84041 33104 ft 503 kts 127°
2026-05-04 00:51 33.69738 -88.77194 33105 ft 502 kts 127°
2026-05-04 00:52 33.65727 -88.70320 33084 ft 502 kts 127°
2026-05-04 00:52 33.61714 -88.63456 33087 ft 502 kts 127°
2026-05-04 00:53 33.57692 -88.56589 33083 ft 502 kts 127°
2026-05-04 00:53 33.53673 -88.49740 33075 ft 502 kts 127°
2026-05-04 00:54 33.49645 -88.42889 33111 ft 502 kts 127°
2026-05-04 00:54 33.46295 -88.37200 33107 ft 502 kts 127°
2026-05-04 00:55 33.41608 -88.29257 33086 ft 502 kts 127°
2026-05-04 00:55 33.38232 -88.23545 33101 ft 502 kts 127°
2026-05-04 00:56 33.34227 -88.16781 33098 ft 502 kts 127°
2026-05-04 00:56 33.30160 -88.09924 33079 ft 501 kts 127°
2026-05-04 00:57 33.26152 -88.03180 33098 ft 501 kts 127°
2026-05-04 00:57 33.22113 -87.96396 33089 ft 501 kts 127°
2026-05-04 00:58 33.18071 -87.89620 33099 ft 500 kts 127°
2026-05-04 00:58 33.14034 -87.82865 33096 ft 500 kts 127°
2026-05-04 00:59 33.09990 -87.76108 33093 ft 500 kts 127°
2026-05-04 00:59 33.05946 -87.69365 33093 ft 499 kts 127°
2026-05-04 01:00 33.01900 -87.62631 33094 ft 499 kts 127°
2026-05-04 01:00 32.97845 -87.55893 33108 ft 499 kts 127°
2026-05-04 01:01 32.93825 -87.49226 33117 ft 499 kts 127°
2026-05-04 01:01 32.89772 -87.42514 33115 ft 499 kts 127°
2026-05-04 01:02 32.85720 -87.35816 33115 ft 499 kts 127°
2026-05-04 01:02 32.81664 -87.29124 33108 ft 498 kts 127°
2026-05-04 01:03 32.77608 -87.22443 33090 ft 498 kts 127°
2026-05-04 01:03 32.73550 -87.15771 33093 ft 498 kts 127°
2026-05-04 01:04 32.69496 -87.09116 33077 ft 498 kts 127°
2026-05-04 01:04 32.65464 -87.02508 33087 ft 497 kts 128°
2026-05-04 01:05 32.61403 -86.95864 33098 ft 497 kts 128°
2026-05-04 01:05 32.57339 -86.89224 33081 ft 497 kts 128°
2026-05-04 01:06 32.53284 -86.82610 33083 ft 496 kts 128°
2026-05-04 01:06 32.49225 -86.75999 33088 ft 495 kts 128°
2026-05-04 01:07 32.45176 -86.69413 33067 ft 494 kts 128°
2026-05-04 01:07 32.41135 -86.62848 33078 ft 493 kts 128°
2026-05-04 01:08 32.37099 -86.56297 33127 ft 492 kts 128°
2026-05-04 01:08 32.33078 -86.49770 33134 ft 491 kts 128°
2026-05-04 01:09 32.29091 -86.43282 33135 ft 490 kts 128°
2026-05-04 01:09 32.25084 -86.36763 33140 ft 490 kts 128°
2026-05-04 01:10 32.20819 -86.30492 33141 ft 489 kts 140°
2026-05-04 01:10 32.15664 -86.25238 33119 ft 490 kts 143°
2026-05-04 01:11 32.10443 -86.20067 33113 ft 490 kts 143°
2026-05-04 01:11 32.05285 -86.14810 33127 ft 490 kts 142°
2026-05-04 01:12 32.00190 -86.09545 33133 ft 490 kts 142°
2026-05-04 01:12 31.95068 -86.04247 33154 ft 491 kts 143°
2026-05-04 01:13 31.89932 -85.98944 33142 ft 491 kts 143°
2026-05-04 01:13 31.84801 -85.93641 33146 ft 491 kts 143°
2026-05-04 01:14 31.79668 -85.88325 33143 ft 491 kts 144°
2026-05-04 01:14 31.74488 -85.83071 33135 ft 491 kts 144°
2026-05-04 01:15 31.69307 -85.77832 33126 ft 491 kts 144°
2026-05-04 01:15 31.64159 -85.72560 33107 ft 491 kts 144°
2026-05-04 01:16 31.59029 -85.67274 33108 ft 490 kts 144°
2026-05-04 01:16 31.53941 -85.62032 33107 ft 489 kts 145°
2026-05-04 01:17 31.48829 -85.56776 33107 ft 489 kts 145°
2026-05-04 01:17 31.43718 -85.51533 33150 ft 488 kts 146°
2026-05-04 01:18 31.38610 -85.46300 33153 ft 487 kts 146°
2026-05-04 01:18 31.33512 -85.41085 33153 ft 486 kts 146°
2026-05-04 01:19 31.28415 -85.35878 33156 ft 486 kts 146°
2026-05-04 01:19 31.23351 -85.30712 33145 ft 486 kts 147°
2026-05-04 01:20 31.18252 -85.25517 33136 ft 486 kts 147°
2026-05-04 01:20 31.13160 -85.20334 33122 ft 486 kts 147°
2026-05-04 01:21 31.08060 -85.15148 33117 ft 486 kts 147°
2026-05-04 01:21 31.02958 -85.09967 33110 ft 486 kts 147°
2026-05-04 01:22 30.97853 -85.04786 33115 ft 486 kts 148°
2026-05-04 01:22 30.92749 -84.99606 33108 ft 486 kts 148°
2026-05-04 01:23 30.87654 -84.94431 33108 ft 486 kts 148°
2026-05-04 01:23 30.82564 -84.89243 33108 ft 486 kts 148°
2026-05-04 01:24 30.77458 -84.84089 33107 ft 486 kts 149°
2026-05-04 01:24 30.72340 -84.79041 33111 ft 485 kts 150°
2026-05-04 01:25 30.67190 -84.73953 33100 ft 486 kts 149°
2026-05-04 01:25 30.62048 -84.68817 33101 ft 487 kts 149°
2026-05-04 01:26 30.56912 -84.63671 33106 ft 487 kts 149°
2026-05-04 01:26 30.51775 -84.58527 33110 ft 488 kts 150°
2026-05-04 01:27 30.46634 -84.53384 33110 ft 488 kts 150°
2026-05-04 01:27 30.41495 -84.48237 33110 ft 488 kts 150°
2026-05-04 01:28 30.36360 -84.43074 33116 ft 488 kts 150°
2026-05-04 01:28 30.31238 -84.38018 33114 ft 487 kts 151°
2026-05-04 01:29 30.26046 -84.32970 33107 ft 487 kts 151°
2026-05-04 01:29 30.20875 -84.27891 33110 ft 487 kts 151°
2026-05-04 01:30 30.15727 -84.22793 33105 ft 487 kts 150°
2026-05-04 01:30 30.10572 -84.17683 33100 ft 487 kts 151°
2026-05-04 01:31 30.05425 -84.12590 33103 ft 487 kts 151°
2026-05-04 01:31 30.00309 -84.07531 33100 ft 487 kts 151°
2026-05-04 01:32 29.95153 -84.02432 33106 ft 487 kts 151°
2026-05-04 01:32 29.90007 -83.97329 33103 ft 488 kts 151°
2026-05-04 01:33 29.84859 -83.92228 33105 ft 487 kts 151°
2026-05-04 01:33 29.79521 -83.87548 33099 ft 474 kts 162°
2026-05-04 01:34 29.73752 -83.83986 33083 ft 469 kts 165°
2026-05-04 01:34 29.67950 -83.80500 33088 ft 471 kts 164°
2026-05-04 01:35 29.62191 -83.76872 33102 ft 473 kts 163°
2026-05-04 01:35 29.56474 -83.73183 33086 ft 468 kts 163°
2026-05-04 01:36 29.50815 -83.69528 33088 ft 465 kts 163°
2026-05-04 01:36 29.45177 -83.65899 33091 ft 463 kts 164°
2026-05-04 01:37 29.39543 -83.62283 32647 ft 469 kts 163°
2026-05-04 01:37 29.36713 -83.60465 31941 ft 471 kts 163°
2026-05-04 01:37 29.33876 -83.58624 31113 ft 465 kts 162°
2026-05-04 01:37 29.31099 -83.56812 30548 ft 452 kts 163°
2026-05-04 01:38 29.28398 -83.55052 29934 ft 440 kts 163°
2026-05-04 01:38 29.25750 -83.53350 29338 ft 433 kts 163°
2026-05-04 01:38 29.23112 -83.51681 28771 ft 435 kts 163°
2026-05-04 01:38 29.20427 -83.49998 28262 ft 447 kts 163°
2026-05-04 01:39 29.17668 -83.48269 27678 ft 453 kts 162°
2026-05-04 01:39 29.14922 -83.46519 27073 ft 449 kts 162°
2026-05-04 01:39 29.12212 -83.44776 26501 ft 444 kts 161°
2026-05-04 01:39 29.09540 -83.43051 25927 ft 439 kts 161°
2026-05-04 01:40 29.06891 -83.41351 25368 ft 434 kts 162°
2026-05-04 01:40 29.04262 -83.39685 24823 ft 430 kts 162°
2026-05-04 01:40 29.01685 -83.38063 24270 ft 425 kts 162°
2026-05-04 01:40 28.99098 -83.36453 23735 ft 422 kts 162°
2026-05-04 01:41 28.96534 -83.34856 23106 ft 419 kts 162°
2026-05-04 01:41 28.93991 -83.33261 22518 ft 415 kts 161°
2026-05-04 01:41 28.91479 -83.31677 21959 ft 410 kts 161°
2026-05-04 01:41 28.89798 -83.30613 21588 ft 408 kts 161°
2026-05-04 01:42 28.87360 -83.29067 21064 ft 403 kts 161°
2026-05-04 01:42 28.84923 -83.27522 20530 ft 399 kts 161°
2026-05-04 01:42 28.82499 -83.25985 20010 ft 396 kts 161°
2026-05-04 01:42 28.80103 -83.24465 19492 ft 392 kts 161°
2026-05-04 01:43 28.77729 -83.22960 18990 ft 389 kts 161°
2026-05-04 01:43 28.75373 -83.21466 18468 ft 386 kts 161°
2026-05-04 01:43 28.73031 -83.19981 17882 ft 384 kts 160°
2026-05-04 01:43 28.70702 -83.18504 17271 ft 382 kts 160°
2026-05-04 01:44 28.68388 -83.17035 16737 ft 379 kts 160°
2026-05-04 01:44 28.66102 -83.15581 16221 ft 376 kts 160°
2026-05-04 01:44 28.63832 -83.14134 15700 ft 372 kts 159°
2026-05-04 01:44 28.61572 -83.12698 15218 ft 369 kts 159°
2026-05-04 01:45 28.59333 -83.11289 14724 ft 367 kts 159°
2026-05-04 01:45 28.57106 -83.09899 14227 ft 365 kts 159°
2026-05-04 01:45 28.52668 -83.07132 13179 ft 362 kts 158°
2026-05-04 01:46 28.50500 -83.05767 12677 ft 359 kts 158°
2026-05-04 01:46 28.48325 -83.04388 12178 ft 357 kts 158°
2026-05-04 01:46 28.46154 -83.03015 11694 ft 355 kts 158°
2026-05-04 01:46 28.44002 -83.01667 11213 ft 352 kts 158°
2026-05-04 01:47 28.41887 -83.00351 11013 ft 342 kts 158°
2026-05-04 01:47 28.39826 -82.99074 10775 ft 333 kts 159°
2026-05-04 01:47 28.37821 -82.97831 10554 ft 324 kts 158°
2026-05-04 01:47 28.35869 -82.96609 10349 ft 315 kts 159°
2026-05-04 01:48 28.33976 -82.95414 10147 ft 307 kts 159°
2026-05-04 01:48 28.32130 -82.94255 9945 ft 299 kts 159°
2026-05-04 01:48 28.30328 -82.93133 9734 ft 291 kts 159°
2026-05-04 01:48 28.28586 -82.92060 9552 ft 286 kts 160°
2026-05-04 01:49 28.26891 -82.90876 9316 ft 289 kts 146°
2026-05-04 01:49 28.25422 -82.89326 9250 ft 291 kts 143°
2026-05-04 01:49 28.23957 -82.87714 9030 ft 295 kts 142°
2026-05-04 01:49 28.22494 -82.86085 8838 ft 293 kts 141°
2026-05-04 01:50 28.21046 -82.84468 8642 ft 291 kts 141°
2026-05-04 01:50 28.20092 -82.83404 8514 ft 289 kts 141°
2026-05-04 01:50 28.19676 -82.82941 8453 ft 288 kts 141°
2026-05-04 01:50 28.18397 -82.81515 8293 ft 286 kts 141°
2026-05-04 01:51 28.16983 -82.79941 8116 ft 283 kts 141°
2026-05-04 01:51 28.15589 -82.78387 7930 ft 281 kts 141°
2026-05-04 01:51 28.14201 -82.76832 7750 ft 279 kts 141°
2026-05-04 01:51 28.12826 -82.75292 7577 ft 276 kts 141°
2026-05-04 01:52 28.11455 -82.73772 7395 ft 275 kts 141°
2026-05-04 01:52 28.10084 -82.72264 7227 ft 274 kts 141°
2026-05-04 01:52 28.08715 -82.70771 7052 ft 273 kts 141°
2026-05-04 01:52 28.07350 -82.69268 6880 ft 273 kts 140°
2026-05-04 01:53 28.06022 -82.67730 6708 ft 272 kts 139°
2026-05-04 01:53 28.04698 -82.66196 6541 ft 272 kts 139°
2026-05-04 01:53 28.03388 -82.64694 6359 ft 271 kts 139°
2026-05-04 01:53 28.02057 -82.63184 6162 ft 271 kts 139°
2026-05-04 01:54 28.00550 -82.61915 6009 ft 267 kts 162°
2026-05-04 01:54 27.98737 -82.61517 5821 ft 266 kts 183°
2026-05-04 01:54 27.96914 -82.61591 5615 ft 266 kts 187°
2026-05-04 01:54 27.95063 -82.61724 5428 ft 259 kts 187°
2026-05-04 01:55 27.93297 -82.61835 5267 ft 250 kts 186°
2026-05-04 01:55 27.91611 -82.61929 5110 ft 241 kts 186°
2026-05-04 01:55 27.89960 -82.62016 5001 ft 234 kts 185°
2026-05-04 01:55 27.88353 -82.62078 5012 ft 229 kts 185°
2026-05-04 01:56 27.86766 -82.62141 5008 ft 228 kts 186°
2026-05-04 01:56 27.85177 -82.62211 5001 ft 227 kts 186°
2026-05-04 01:56 27.83639 -82.62278 4959 ft 214 kts 186°
2026-05-04 01:56 27.82195 -82.62331 4951 ft 204 kts 186°
2026-05-04 01:57 27.80813 -82.62385 4982 ft 196 kts 187°
2026-05-04 01:57 27.79409 -82.62438 5016 ft 202 kts 186°
2026-05-04 01:57 27.78057 -82.62490 4975 ft 188 kts 187°
2026-05-04 01:57 27.76804 -82.62547 4979 ft 178 kts 188°
2026-05-04 01:58 27.75586 -82.62597 4973 ft 180 kts 187°
2026-05-04 01:58 27.74250 -82.62640 5077 ft 198 kts 186°
2026-05-04 01:58 27.72911 -82.62665 4983 ft 185 kts 186°
2026-05-04 01:58 27.71692 -82.62673 4790 ft 164 kts 188°
2026-05-04 01:59 27.70572 -82.62508 4244 ft 161 kts 163°
2026-05-04 01:59 27.69680 -82.61760 3729 ft 178 kts 129°
2026-05-04 01:59 27.69273 -82.60332 3708 ft 209 kts 93°
2026-05-04 01:59 27.69665 -82.58751 3663 ft 211 kts 63°
2026-05-04 02:00 27.70517 -82.57436 3434 ft 208 kts 58°
2026-05-04 02:00 27.71417 -82.56174 3173 ft 203 kts 54°
2026-05-04 02:00 27.72586 -82.55304 2816 ft 206 kts 22°
2026-05-04 02:00 27.73988 -82.55060 2545 ft 203 kts 14°
2026-05-04 02:01 27.75399 -82.54931 2203 ft 203 kts 11°
2026-05-04 02:01 27.76796 -82.54862 1839 ft 198 kts 11°
2026-05-04 02:01 27.78143 -82.54813 1692 ft 184 kts 12°
2026-05-04 02:01 27.79368 -82.54770 1698 ft 175 kts 12°
2026-05-04 02:02 27.80573 -82.54730 1696 ft 179 kts 13°
2026-05-04 02:02 27.81815 -82.54697 1762 ft 169 kts 12°
2026-05-04 02:02 27.82946 -82.54668 1696 ft 157 kts 14°
2026-05-04 02:02 27.83998 -82.54626 1693 ft 148 kts 16°
2026-05-04 02:03 27.85039 -82.54582 1693 ft 154 kts 15°
2026-05-04 02:03 27.86117 -82.54554 1709 ft 156 kts 14°
2026-05-04 02:03 27.87190 -82.54525 1701 ft 152 kts 15°
2026-05-04 02:03 27.88253 -82.54485 1581 ft 154 kts 15°
2026-05-04 02:04 27.89327 -82.54451 1391 ft 155 kts 15°
2026-05-04 02:04 27.90401 -82.54421 1192 ft 153 kts 15°
2026-05-04 02:04 27.91465 -82.54381 1005 ft 153 kts 14°
2026-05-04 02:04 27.92528 -82.54350 797 ft 154 kts 17°
2026-05-04 02:05 27.93592 -82.54218 635 ft 153 kts 10°
2026-05-04 02:05 27.94658 -82.54255 395 ft 156 kts 357°
2026-05-04 02:05 27.95700 -82.54274 239 ft 149 kts
2026-05-04 02:05 27.96747 -82.54232 57 ft 151 kts
2026-05-04 02:06 27.97684 -82.54194 45 ft 108 kts
2026-05-04 02:06 27.98184 -82.54157 48 ft 30 kts 16°
2026-05-04 02:06 27.98293 -82.54104 49 ft 0 kts 37°
2026-05-04 02:11 27.98294 -82.54102 49 ft 3 kts 37°
2026-05-04 02:11 27.98333 -82.54041 46 ft 16 kts 70°
2026-05-04 02:11 27.98347 -82.53928 45 ft 11 kts 65°
2026-05-04 02:12 27.98403 -82.53855 47 ft 14 kts 46°
2026-05-04 02:12 27.98483 -82.53772 46 ft 15 kts 15°
2026-05-04 02:12 27.98573 -82.53755 46 ft 12 kts 59°
2026-05-04 02:12 27.98579 -82.53645 54 ft 16 kts 90°
2026-05-04 02:13 27.98575 -82.53501 61 ft 20 kts 93°
2026-05-04 02:13 27.98567 -82.53294 54 ft 35 kts 92°
2026-05-04 02:13 27.98557 -82.53144 41 ft 0 kts 131°
2026-05-04 02:13 27.98555 -82.53145 41 ft 0 kts 158°
2026-05-04 02:14 27.98553 -82.53145 41 ft 0 kts 170°
2026-05-04 02:14 27.98542 -82.53144 43 ft 14 kts 174°
2026-05-04 02:14 27.98497 -82.53211 43 ft 13 kts 267°
2026-05-04 02:14 27.98487 -82.53328 42 ft 15 kts 237°
2026-05-04 02:15 27.98419 -82.53374 42 ft 11 kts 186°
2026-05-04 02:15 27.98385 -82.53328 42 ft 10 kts 102°
2026-05-04 02:15 27.98383 -82.53314 42 ft 0 kts 99°
2026-05-04 02:15 27.98383 -82.53313 42 ft 0 kts 104°
2026-05-04 02:16 27.98382 -82.53311 42 ft 0 kts 102°
2026-05-04 02:16 27.98382 -82.53308 42 ft 0 kts 101°
2026-05-04 02:16 27.98382 -82.53307 42 ft 0 kts 101°
2026-05-04 02:16 27.98382 -82.53306 42 ft 0 kts 101°